Overview Statistics Trail Chart Weather Telemetry Raw packets
 

This is the latest recevied weather packets stored in our database for station/object K6CED. If no packets are shown the sender has not sent any weather packets the latest 10 day(s).

<< 77 78 79 80 81 82 83 >>
Time Temp. Humidity Pressure Rain* Wind** Luminosity Snow
1788110917 30° C 49% 1015.4 hPa 0 mm - 688 W/m² -
1788110613 30° C 50% 1015.5 hPa 0 mm - 673 W/m² -
1788110309 29.44° C 50% 1015.2 hPa 0 mm - 658 W/m² -
1788110004 29.44° C 50% 1015.3 hPa 0 mm - 643 W/m² -
1788109699 28.89° C 52% 1015.4 hPa 0 mm - 635 W/m² -
1788109398 28.89° C 52% 1015.5 hPa 0 mm - 616 W/m² -
1788109096 28.89° C 52% 1015.5 hPa 0 mm - 599 W/m² -
1788108792 28.89° C 54% 1015.6 hPa 0 mm - 582 W/m² -
1788108483 27.78° C 56% 1015.5 hPa 0 mm - 563 W/m² -
1788108179 27.78° C 57% 1015.6 hPa 0 mm - 549 W/m² -
1788107869 27.78° C 58% 1015.7 hPa 0 mm - 534 W/m² -
1788107565 27.22° C 61% 1015.6 hPa 0 mm - 522 W/m² -
1788107258 26.67° C 62% 1015.7 hPa 0 mm - 512 W/m² -
1788106956 26.67° C 64% 1015.5 hPa 0 mm - 498 W/m² -
1788106651 26.67° C 65% 1015.7 hPa 0 mm - 484 W/m² -
1788106345 26.11° C 67% 1015.6 hPa 0 mm - 471 W/m² -
1788106041 26.11° C 68% 1015.6 hPa 0 mm - 453 W/m² -
1788105740 25.56° C 70% 1015.5 hPa 0 mm - 435 W/m² -
1788105437 25.56° C 70% 1015.6 hPa 0 mm - 208 W/m² -
1788105133 25.56° C 69% 1015.7 hPa 0 mm - 396 W/m² -
1788104828 25° C 71% 1015.6 hPa 0 mm - 380 W/m² -
1788104523 25° C 73% 1015.6 hPa 0 mm - 360 W/m² -
1788104220 24.44° C 73% 1015.4 hPa 0 mm - 341 W/m² -
1788103920 24.44° C 73% 1015.6 hPa 0 mm - 320 W/m² -
1788103618 24.44° C 74% 1015.7 hPa 0 mm - 301 W/m² -

* Rain latest hour (hover to see other rain measurements)
** Current wind speed in m/s (hover to see current wind gust speed)